Location: Crocus Hill
(18.2167°N, 63.0667°W)
Time: 03:47:13
(UTC+00:00)

ALOS - Pass Details

Date: 26 January 2020
Orbit: 683 x 686 km, 97.8° (Epoch: 18 February)

Event Time Altitude Azimuth Distance (km) Brightness Sun altitude
Rises 09:36:38 0° 1° (N) 3,039 5.5 -16.7°
Reaches altitude 10° 09:38:57 10° 354° (N) 2,122 4.6 -16.2°
Maximum altitude 09:43:20 43° 284° (WNW) 960 2.5 -15.2°
Drops below altitude 10° 09:47:42 10° 213° (SSW) 2,118 4.6 -14.2°
Sets 09:50:02 0° 206° (SSW) 3,032 5.5 -13.7°
